STARLINK-31975, 59886

Orbit data source: Space-Track

STARLINK-31975, 59886 is a payload satellite owned by SpaceX/Seattle (US) in LEO that was launched on Tue, 28 May 2024 UTC via an FALCON 9 launch vehicle from the Air Force Eastern Test Range (AFETR). Payload-class satellites include a variety of spacecraft equipped with specific instruments for various scientific and technological missions. These include communications satellites like Starlink; space stations such as the ISS; scientific satellites like the Hubble; Earth observation satellites from companies like Planet Labs, Umbra, and HawkEye 360; GPS; miniature CubeSats for education and research; and military/defense satellites.

Loading next visibility...
Identifier
59886, 2024-100B
Orbit
LEO
Country
Flag of USUS
Related business
Manufacturer
SpaceX/Seattle
Mission
Operational Commercial Communications
Bus & Motor
STARLINK V2M, Unknown motor
Mass
730 kg wet, ~700 kg dry
Launch date (UTC)
2024-05-28 (1 year ago)
Launch vehicle
FALCON 9
Launch site
Air Force Eastern Test Range (AFETR)
Object type
Payload
Rocket body
Debris
Shape & HBR
Box + 2 Pan, 17.7 m
Radar Cross Section
33.884 m², Large (>1 m²)

Expand to show TLE details & history
Last TLE update: 20 hours ago

TLE from 20 hours ago
0 STARLINK-31975
1 59886U 24100B   25310.74441108  .00002601  00000-0  10399-3 0  9997
2 59886  43.0042  99.7569 0001638 273.4959  86.5706 15.27583201 82357
Epoch: 2025-11-06T17:51Z
TLE epoch observation values (Epoch: 2025-11-06T17:51:57.117Z)
Latitude
0.00003°
Longitude
145.57062°
Altitude
482.748 km
Speed
7.626 km/s
True Right ascension
06h 39m 01s
True Declination
0° 00' 00"
Sunlit
Object was in full shadow at epoch
Visualization orbit readout
Latitude
Unknown
Longitude
Unknown
Altitude
Unknown
Speed
Unknown
Apparent Right ascension
Unknown
Apparent Declination
Unknown
Sunlit
N/A
Visualization observer readout
Local Sidereal Time
10:09:58
Azimuth
Unknown
Elevation
Unknown
Doppler factor
Unknown
Orbital elements
Apogee altitude
486.108 km
Perigee altitude
483.86 km
Semi-major axis
6,863.121 km
Eccentricity
0.00016
Inclination
43.0042°
RAAN
99.7569°
Arg. of periapsis
273.4959°
True anomaly
86.58934°
Mean anomaly
86.5706°
Eccentric anomaly
86.57997°
Mean motion
3.81734 °/min
Orbital period
94.31 mins
BSTAR
0.00010399
Loading maneuver chart data...
Computing Atmospheric mass density...
Loading historical data...
Loading historical data...
Loading historical data...
Loading historical data...
Loading historical data...
Loading historical data...
Loading historical data...

Documentation

Showing up to 5 results
|